| time (UTC) | temp F | wind direction | speed MPH | gust MPH | rain 1hr in | rain 24hr in | rain mn in | humidity % | barometer mb |
| 20260504201804 | 76 | 196 | 11.0 | 11.0 | 0.00 | 0.00 | 0.00 | 44 | 1002.2 |
| 20260504201302 | 75 | 192 | 7.0 | 8.0 | 0.00 | 0.00 | 0.00 | 44 | 1002.3 |
| 20260504200759 | 77 | 262 | 7.0 | 9.0 | 0.00 | 0.00 | 0.00 | 44 | 1002.3 |
| 20260504200255 | 77 | 230 | 15.0 | 17.0 | 0.00 | 0.00 | 0.00 | 43 | 1002.5 |
| 20260504195752 | 76 | 215 | 12.0 | 16.0 | 0.00 | 0.00 | 0.00 | 43 | 1002.6 |
| 20260504195248 | 76 | 223 | 11.0 | 15.0 | 0.00 | 0.00 | 0.00 | 43 | 1002.5 |
| 20260504194745 | 75 | 206 | 10.0 | 13.0 | 0.00 | 0.00 | 0.00 | 47 | 1002.7 |
| 20260504194241 | 76 | 223 | 13.0 | 20.0 | 0.00 | 0.00 | 0.00 | 45 | 1003.0 |
| 20260504193737 | 76 | 235 | 8.0 | 11.0 | 0.00 | 0.00 | 0.00 | 45 | 1002.7 |
| 20260504193235 | 77 | 196 | 5.0 | 8.0 | 0.00 | 0.00 | 0.00 | 46 | 1003.0 |
| 20260504192733 | 76 | 285 | 11.0 | 18.0 | 0.00 | 0.00 | 0.00 | 43 | 1003.1 |
| 20260504192231 | 75 | 213 | 12.0 | 17.0 | 0.00 | 0.00 | 0.00 | 45 | 1003.0 |
| 20260504191730 | 75 | 206 | 9.0 | 11.0 | 0.00 | 0.00 | 0.00 | 45 | 1003.2 |
| 20260504191226 | 76 | 223 | 13.0 | 16.0 | 0.00 | 0.00 | 0.00 | 44 | 1002.8 |
| 20260504190721 | 76 | 258 | 10.0 | 13.0 | 0.00 | 0.00 | 0.00 | 47 | 1002.9 |
| 20260504190218 | 76 | 218 | 13.0 | 17.0 | 0.00 | 0.00 | 0.00 | 47 | 1002.9 |
| 20260504185715 | 75 | 190 | 15.0 | 22.0 | 0.00 | 0.00 | 0.00 | 49 | 1003.1 |
| 20260504185212 | 75 | 196 | 13.0 | 16.0 | 0.00 | 0.00 | 0.00 | 48 | 1003.0 |
| 20260504184707 | 74 | 208 | 10.0 | 14.0 | 0.00 | 0.00 | 0.00 | 48 | 1002.9 |
| 20260504184203 | 74 | 210 | 9.0 | 15.0 | 0.00 | 0.00 | 0.00 | 48 | 1003.6 |
| 20260504183659 | 74 | 213 | 14.0 | 20.0 | 0.00 | 0.00 | 0.00 | 47 | 1003.1 |
| 20260504183156 | 73 | 254 | 9.0 | 10.0 | 0.00 | 0.00 | 0.00 | 48 | 1003.4 |
| 20260504182654 | 74 | 209 | 11.0 | 15.0 | 0.00 | 0.00 | 0.00 | 48 | 1003.3 |
| 20260504182152 | 75 | 192 | 9.0 | 13.0 | 0.00 | 0.00 | 0.00 | 48 | 1003.6 |
| 20260504181649 | 75 | 253 | 7.0 | 9.0 | 0.00 | 0.00 | 0.00 | 49 | 1003.2 |
| 20260504181147 | 74 | 203 | 12.0 | 14.0 | 0.00 | 0.00 | 0.00 | 48 | 1003.7 |
| 20260504180646 | 73 | 203 | 9.0 | 10.0 | 0.00 | 0.00 | 0.00 | 51 | 1003.4 |
| 20260504180144 | 73 | 218 | 13.0 | 18.0 | 0.00 | 0.00 | 0.00 | 51 | 1003.6 |
| 20260504175641 | 74 | 190 | 6.0 | 8.0 | 0.00 | 0.00 | 0.00 | 53 | 1003.6 |
| 20260504175137 | 74 | 189 | 8.0 | 10.0 | 0.00 | 0.00 | 0.00 | 55 | 1003.3 |
| 20260504174636 | 73 | 252 | 4.0 | 5.0 | 0.00 | 0.00 | 0.00 | 53 | 1003.8 |
| 20260504174131 | 73 | 225 | 7.0 | 9.0 | 0.00 | 0.00 | 0.00 | 52 | 1004.0 |
| 20260504173629 | 73 | 210 | 9.0 | 11.0 | 0.00 | 0.00 | 0.00 | 54 | 1003.9 |
| 20260504173127 | 72 | 185 | 13.0 | 18.0 | 0.00 | 0.00 | 0.00 | 54 | 1003.9 |
| 20260504172623 | 72 | 194 | 7.0 | 9.0 | 0.00 | 0.00 | 0.00 | 54 | 1004.2 |
| 20260504172120 | 71 | 186 | 13.0 | 16.0 | 0.00 | 0.00 | 0.00 | 54 | 1004.1 |
| 20260504171616 | 72 | 276 | 3.0 | 3.0 | 0.00 | 0.00 | 0.00 | 58 | 1004.4 |
| 20260504171113 | 72 | 109 | 7.0 | 9.0 | 0.00 | 0.00 | 0.00 | 53 | 1004.3 |
| 20260504170609 | 71 | 244 | 4.0 | 6.0 | 0.00 | 0.00 | 0.00 | 55 | 1004.5 |
| 20260504170107 | 71 | 209 | 9.0 | 9.0 | 0.00 | 0.00 | 0.00 | 53 | 1004.5 |
| 20260504150952 | 65 | 191 | 7.0 | 8.0 | 0.00 | 0.00 | 0.00 | 61 | 1005.8 |
| 20260504150449 | 65 | 242 | 3.0 | 5.0 | 0.00 | 0.00 | 0.00 | 62 | 1005.7 |
| 20260504140916 | 61 | 197 | 4.0 | 5.0 | 0.00 | 0.00 | 0.00 | 68 | 1006.1 |
| 20260504140412 | 60 | 187 | 3.0 | 3.0 | 0.00 | 0.00 | 0.00 | 69 | 1006.0 |
| 20260504130337 | 56 | 205 | 6.0 | 7.0 | 0.00 | 0.00 | 0.00 | 69 | 1006.4 |
| 20260504120300 | 52 | 157 | 4.0 | 6.0 | 0.00 | 0.00 | 0.00 | 77 | 1006.7 |
| 20260504110224 | 50 | 186 | 3.0 | 3.0 | 0.00 | 0.00 | 0.00 | 77 | 1006.5 |
| 20260504100142 | 50 | 178 | 2.0 | 2.0 | 0.00 | 0.00 | 0.00 | 76 | 1006.8 |
| 20260504090105 | 48 | 198 | 3.0 | 3.0 | 0.00 | 0.00 | 0.00 | 79 | 1006.5 |
| 20260504081535 | 47 | 104 | 0.0 | 0.0 | 0.00 | 0.00 | 0.00 | 81 | 1007.0 |
| 20260504081031 | 47 | 131 | 0.0 | 0.0 | 0.00 | 0.00 | 0.00 | 81 | 1007.0 |
| 20260504080527 | 47 | 99 | 0.0 | 0.0 | 0.00 | 0.00 | 0.00 | 81 | 1007.2 |
| 20260504050334 | 48 | 106 | 0.0 | 0.0 | 0.00 | 0.00 | 0.00 | 80 | 1009.1 |
| 20260504045831 | 48 | 89 | 0.0 | 0.0 | 0.00 | 0.00 | 0.00 | 80 | 1008.9 |
| 20260504045326 | 48 | 123 | 0.0 | 0.0 | 0.00 | 0.00 | 0.00 | 79 | 1009.0 |
| 20260504044823 | 48 | 142 | 1.0 | 2.0 | 0.00 | 0.00 | 0.00 | 79 | 1009.3 |
| 20260504044321 | 48 | 105 | 0.0 | 0.0 | 0.00 | 0.00 | 0.00 | 78 | 1009.1 |
| 20260504043818 | 48 | 122 | 0.0 | 0.0 | 0.00 | 0.00 | 0.00 | 78 | 1009.3 |
| 20260504043315 | 48 | 153 | 2.0 | 2.0 | 0.00 | 0.00 | 0.00 | 78 | 1009.3 |
| 20260504042812 | 48 | 122 | 1.0 | 1.0 | 0.00 | 0.00 | 0.00 | 78 | 1009.0 |
| 20260504042308 | 49 | 102 | 0.0 | 0.0 | 0.00 | 0.00 | 0.00 | 78 | 1009.2 |
| 20260504041805 | 49 | 135 | 0.0 | 0.0 | 0.00 | 0.00 | 0.00 | 78 | 1009.2 |
| 20260504041301 | 48 | 130 | 1.0 | 1.0 | 0.00 | 0.00 | 0.00 | 78 | 1009.4 |
| 20260504040757 | 48 | 111 | 2.0 | 2.0 | 0.00 | 0.00 | 0.00 | 78 | 1009.5 |
| 20260504040255 | 48 | 114 | 0.0 | 0.0 | 0.00 | 0.00 | 0.00 | 78 | 1009.4 |
| 20260504035750 | 48 | 136 | 0.0 | 1.0 | 0.00 | 0.00 | 0.00 | 78 | 1009.3 |
| 20260504035248 | 48 | 104 | 0.0 | 0.0 | 0.00 | 0.00 | 0.00 | 78 | 1009.4 |
| 20260504034745 | 48 | 111 | 1.0 | 1.0 | 0.00 | 0.00 | 0.00 | 78 | 1009.5 |
| 20260504034242 | 48 | 106 | 0.0 | 0.0 | 0.00 | 0.00 | 0.00 | 78 | 1009.5 |
| 20260504033740 | 49 | 109 | 0.0 | 0.0 | 0.00 | 0.00 | 0.00 | 78 | 1009.9 |
| 20260504033237 | 49 | 102 | 0.0 | 1.0 | 0.00 | 0.00 | 0.00 | 78 | 1009.7 |
| 20260504032734 | 49 | 131 | 1.0 | 2.0 | 0.00 | 0.00 | 0.00 | 78 | 1009.8 |
| 20260504032231 | 49 | 113 | 0.0 | 0.0 | 0.00 | 0.00 | 0.00 | 77 | 1009.6 |
| 20260504031728 | 49 | 164 | 2.0 | 3.0 | 0.00 | 0.00 | 0.00 | 78 | 1009.9 |
| 20260504031226 | 49 | 183 | 0.0 | 0.0 | 0.00 | 0.00 | 0.00 | 78 | 1010.0 |
| 20260504030721 | 49 | 120 | 1.0 | 1.0 | 0.00 | 0.00 | 0.00 | 78 | 1009.8 |
| 20260504030219 | 48 | 129 | 2.0 | 2.0 | 0.00 | 0.00 | 0.00 | 79 | 1009.9 |
| 20260504025715 | 48 | 135 | 2.0 | 2.0 | 0.00 | 0.00 | 0.00 | 79 | 1010.1 |
| 20260504025212 | 48 | 111 | 0.0 | 0.0 | 0.00 | 0.00 | 0.00 | 81 | 1010.2 |
| 20260504024709 | 47 | 144 | 1.0 | 2.0 | 0.00 | 0.00 | 0.00 | 81 | 1010.1 |
| 20260504024205 | 48 | 104 | 1.0 | 1.0 | 0.00 | 0.00 | 0.00 | 81 | 1010.2 |
| 20260504023702 | 48 | 104 | 0.0 | 0.0 | 0.00 | 0.00 | 0.00 | 81 | 1010.2 |
| 20260504023158 | 48 | 59 | 1.0 | 1.0 | 0.00 | 0.00 | 0.00 | 81 | 1010.3 |
| 20260504022654 | 48 | 114 | 0.0 | 0.0 | 0.00 | 0.00 | 0.00 | 80 | 1010.2 |
| 20260504022150 | 48 | 138 | 1.0 | 1.0 | 0.00 | 0.00 | 0.00 | 80 | 1010.2 |
| 20260504021648 | 48 | 111 | 1.0 | 1.0 | 0.00 | 0.00 | 0.00 | 80 | 1010.3 |
| 20260504021145 | 49 | 126 | 2.0 | 2.0 | 0.00 | 0.00 | 0.00 | 80 | 1010.4 |
| 20260504020642 | 49 | 126 | 1.0 | 1.0 | 0.00 | 0.00 | 0.00 | 79 | 1010.4 |
| 20260504020138 | 49 | 124 | 0.0 | 0.0 | 0.00 | 0.00 | 0.00 | 79 | 1010.5 |
| 20260504015635 | 49 | 94 | 2.0 | 3.0 | 0.00 | 0.00 | 0.00 | 79 | 1010.3 |
| 20260504015131 | 49 | 168 | 2.0 | 2.0 | 0.00 | 0.00 | 0.00 | 79 | 1010.2 |
| 20260504014627 | 49 | 166 | 1.0 | 1.0 | 0.00 | 0.00 | 0.00 | 79 | 1010.3 |
| 20260504014124 | 49 | 183 | 2.0 | 2.0 | 0.00 | 0.00 | 0.00 | 78 | 1010.2 |
| 20260504013622 | 49 | 106 | 1.0 | 1.0 | 0.00 | 0.00 | 0.00 | 78 | 1010.3 |
| 20260504013119 | 49 | 130 | 0.0 | 1.0 | 0.00 | 0.00 | 0.00 | 78 | 1010.2 |
| 20260504012616 | 49 | 149 | 3.0 | 5.0 | 0.00 | 0.00 | 0.00 | 78 | 1010.3 |
| 20260504012114 | 50 | 193 | 2.0 | 2.0 | 0.00 | 0.00 | 0.00 | 77 | 1010.2 |
| 20260504011610 | 50 | 159 | 1.0 | 2.0 | 0.00 | 0.00 | 0.00 | 77 | 1010.4 |
| 20260504011107 | 50 | 185 | 1.0 | 5.0 | 0.00 | 0.00 | 0.00 | 77 | 1010.2 |
| 20260504010602 | 50 | 125 | 1.0 | 1.0 | 0.00 | 0.00 | 0.00 | 77 | 1010.3 |
| 20260504010058 | 50 | 134 | 2.0 | 2.0 | 0.00 | 0.00 | 0.00 | 77 | 1010.3 |
| 20260504005555 | 50 | 116 | 5.0 | 8.0 | 0.00 | 0.00 | 0.00 | 76 | 1010.4 |
| 20260504005053 | 50 | 102 | 0.0 | 0.0 | 0.00 | 0.00 | 0.00 | 76 | 1010.3 |
| 20260504004550 | 50 | 131 | 2.0 | 3.0 | 0.00 | 0.00 | 0.00 | 76 | 1010.4 |
| 20260504004047 | 50 | 162 | 3.0 | 3.0 | 0.00 | 0.00 | 0.00 | 76 | 1010.5 |
| 20260504003543 | 50 | 116 | 3.0 | 3.0 | 0.00 | 0.00 | 0.00 | 76 | 1010.4 |
| 20260504003040 | 50 | 108 | 3.0 | 3.0 | 0.00 | 0.00 | 0.00 | 75 | 1010.5 |
| 20260504002537 | 50 | 119 | 2.0 | 2.0 | 0.00 | 0.00 | 0.00 | 75 | 1010.5 |
| 20260504002035 | 50 | 157 | 2.0 | 3.0 | 0.00 | 0.00 | 0.00 | 76 | 1010.5 |
| 20260504001532 | 50 | 179 | 1.0 | 1.0 | 0.00 | 0.00 | 0.00 | 77 | 1010.6 |
| 20260504001028 | 50 | 135 | 3.0 | 3.0 | 0.00 | 0.00 | 0.00 | 76 | 1010.6 |
| 20260504000525 | 50 | 123 | 2.0 | 2.0 | 0.00 | 0.00 | 0.00 | 77 | 1010.5 |
| 20260504000023 | 50 | 142 | 3.0 | 3.0 | 0.00 | 0.00 | 0.00 | 77 | 1010.7 |
| 20260503235521 | 50 | 99 | 2.0 | 2.0 | 0.00 | 0.00 | 0.00 | 77 | 1010.9 |
| 20260503235017 | 50 | 139 | 3.0 | 3.0 | 0.00 | 0.00 | 0.00 | 76 | 1011.1 |
| 20260503234515 | 50 | 129 | 2.0 | 2.0 | 0.00 | 0.00 | 0.00 | 76 | 1011.0 |
| 20260503234014 | 50 | 134 | 1.0 | 1.0 | 0.00 | 0.00 | 0.00 | 76 | 1010.7 |
| 20260503233509 | 50 | 108 | 5.0 | 6.0 | 0.00 | 0.00 | 0.00 | 76 | 1011.1 |
| 20260503233006 | 50 | 169 | 2.0 | 2.0 | 0.00 | 0.00 | 0.00 | 75 | 1011.1 |
| 20260503232503 | 50 | 157 | 4.0 | 6.0 | 0.00 | 0.00 | 0.00 | 75 | 1011.0 |
| 20260503232000 | 50 | 101 | 3.0 | 3.0 | 0.00 | 0.00 | 0.00 | 75 | 1011.0 |
| 20260503231458 | 50 | 119 | 3.0 | 5.0 | 0.00 | 0.00 | 0.00 | 75 | 1011.0 |
| 20260503230954 | 50 | 150 | 3.0 | 5.0 | 0.00 | 0.00 | 0.00 | 75 | 1011.2 |
| 20260503230451 | 50 | 139 | 4.0 | 5.0 | 0.00 | 0.00 | 0.00 | 75 | 1011.3 |
| 20260503225948 | 50 | 213 | 2.0 | 2.0 | 0.00 | 0.00 | 0.00 | 76 | 1011.5 |
| 20260503225445 | 50 | 118 | 4.0 | 6.0 | 0.00 | 0.00 | 0.00 | 76 | 1011.6 |
| 20260503224940 | 50 | 148 | 4.0 | 5.0 | 0.00 | 0.00 | 0.00 | 76 | 1011.2 |
| 20260503224438 | 50 | 148 | 2.0 | 2.0 | 0.00 | 0.00 | 0.00 | 77 | 1011.5 |
| 20260503223936 | 50 | 95 | 2.0 | 3.0 | 0.00 | 0.00 | 0.00 | 76 | 1011.3 |
| 20260503223433 | 50 | 142 | 5.0 | 6.0 | 0.00 | 0.00 | 0.00 | 76 | 1011.4 |
| 20260503222928 | 50 | 129 | 2.0 | 2.0 | 0.00 | 0.00 | 0.00 | 76 | 1011.6 |
| 20260503222427 | 50 | 162 | 2.0 | 2.0 | 0.00 | 0.00 | 0.00 | 76 | 1011.5 |
| 20260503221925 | 50 | 202 | 5.0 | 6.0 | 0.00 | 0.00 | 0.00 | 76 | 1011.8 |
| 20260503221423 | 50 | 145 | 3.0 | 3.0 | 0.00 | 0.00 | 0.00 | 77 | 1011.8 |
| 20260503220920 | 50 | 125 | 2.0 | 3.0 | 0.00 | 0.00 | 0.00 | 76 | 1011.9 |
| 20260503220416 | 50 | 149 | 1.0 | 2.0 | 0.00 | 0.00 | 0.00 | 76 | 1011.7 |
| 20260503215913 | 50 | 144 | 1.0 | 1.0 | 0.00 | 0.00 | 0.00 | 76 | 1011.8 |
| 20260503215410 | 50 | 136 | 2.0 | 3.0 | 0.00 | 0.00 | 0.00 | 76 | 1011.7 |
| 20260503214908 | 50 | 121 | 3.0 | 3.0 | 0.00 | 0.00 | 0.00 | 76 | 1012.1 |
| 20260503214405 | 50 | 153 | 4.0 | 5.0 | 0.00 | 0.00 | 0.00 | 77 | 1011.8 |
| 20260503213902 | 50 | 98 | 3.0 | 5.0 | 0.00 | 0.00 | 0.00 | 77 | 1012.1 |
| 20260503213400 | 50 | 194 | 5.0 | 7.0 | 0.00 | 0.00 | 0.00 | 77 | 1012.1 |
| 20260503212856 | 50 | 172 | 4.0 | 5.0 | 0.00 | 0.00 | 0.00 | 77 | 1012.2 |
| 20260503212354 | 50 | 133 | 2.0 | 2.0 | 0.00 | 0.00 | 0.00 | 78 | 1012.2 |
| 20260503211851 | 50 | 198 | 3.0 | 5.0 | 0.00 | 0.00 | 0.00 | 78 | 1012.6 |
| 20260503211348 | 50 | 183 | 3.0 | 3.0 | 0.00 | 0.00 | 0.00 | 79 | 1012.8 |
| 20260503210843 | 50 | 213 | 5.0 | 8.0 | 0.00 | 0.00 | 0.00 | 78 | 1012.9 |
| 20260503210341 | 50 | 229 | 9.0 | 9.0 | 0.00 | 0.00 | 0.00 | 75 | 1013.1 |
| 20260503205835 | 51 | 231 | 6.0 | 8.0 | 0.00 | 0.00 | 0.00 | 73 | 1013.3 |
| 20260503205332 | 52 | 204 | 7.0 | 9.0 | 0.00 | 0.00 | 0.00 | 70 | 1013.5 |
| 20260503204829 | 52 | 234 | 8.0 | 11.0 | 0.00 | 0.00 | 0.00 | 69 | 1013.7 |
| 20260503204326 | 52 | 210 | 7.0 | 10.0 | 0.00 | 0.00 | 0.00 | 68 | 1013.6 |
| 20260503203823 | 53 | 223 | 9.0 | 14.0 | 0.00 | 0.00 | 0.00 | 67 | 1013.6 |
| 20260503203321 | 53 | 262 | 9.0 | 14.0 | 0.00 | 0.00 | 0.00 | 65 | 1013.7 |
| 20260503202818 | 53 | 185 | 5.0 | 6.0 | 0.00 | 0.00 | 0.00 | 66 | 1013.8 |
| 20260503202316 | 53 | 256 | 5.0 | 7.0 | 0.00 | 0.00 | 0.00 | 64 | 1013.6 |